METEOR 2-17 DEB, 35370

Orbit data source: Space-Track

METEOR 2-17 DEB, 35370 is space debris in LEO originally from a launch on Sat, 30 Jan 1988 UTC launched from the Plesetsk Missile And Space Complex (PKMTR). Debris objects in space refer to the collection of defunct objects orbiting the Earth. Examples of debris include non-operational satellites, rocket bodies, and fragments generated from explosions, collisions, or faulty payload assembly.

Loading next visibility...
Identifier
35370, 1988-005AE
Orbit
LEO
Country
Flag of CISCIS
Related business
Manufacturer
Unknown
Mission
Spacecraft
Bus & Motor
Unknown
Mass
Unknown
Launch date (UTC)
1988-01-30 (38 years ago)
Launch vehicle
Unknown
Launch site
Plesetsk Missile And Space Complex (PKMTR)
Object type
Payload
Rocket body
Debris
Shape & HBR
Unknown shape, 0.1 m
Radar Cross Section
Small (<0.1 m²)

Expand to show TLE details & history
Last TLE update: 2 days ago

TLE from 2 days ago
0 METEOR 2-17 DEB
1 35370U 88005AE  25350.49273358  .00002195  00000-0  14466-2 0  9995
2 35370  82.5237  46.9771 0025642  96.9469 327.0918 14.01220361939497
Epoch: 2025-12-16T11:49Z
TLE epoch observation values (Epoch: 2025-12-16T11:49:32.181Z)
Latitude
62.99297°
Longitude
159.05709°
Altitude
884.759 km
Speed
7.424 km/s
True Right ascension
04h 07m 16s
True Declination
62° 51' 22"
Sunlit
Object was in full shadow at epoch
Visualization orbit readout
Latitude
Unknown
Longitude
Unknown
Altitude
Unknown
Speed
Unknown
Apparent Right ascension
Unknown
Apparent Declination
Unknown
Sunlit
N/A
Visualization observer readout
Local Sidereal Time
21:14:02
Azimuth
Unknown
Elevation
Unknown
Doppler factor
Unknown
Orbital elements
Apogee altitude
905.33 km
Perigee altitude
868.073 km
Semi-major axis
7,264.839 km
Eccentricity
0.00256
Inclination
82.5237°
RAAN
46.9771°
Arg. of periapsis
96.9469°
True anomaly
326.93173°
Mean anomaly
327.0918°
Eccentric anomaly
327.01181°
Mean motion
3.50513 °/min
Orbital period
102.71 mins
BSTAR
0.0014466
Loading maneuver chart data...
Computing Atmospheric mass density...
Loading historical data...
Loading historical data...
Loading historical data...
Loading historical data...
Loading historical data...
Loading historical data...
Loading historical data...

Documentation

Showing up to 5 results
|